Back to catalog

STARLINK-32587

AliveCommunicationsVLEO
NORAD 62180·PAYLOAD·🇺🇸 United States

Launched Nov 30, 2024 from Vandenberg Space Force Base

Loading…

Next Passes (next 24 hours)

TLE

FreshSource: CelesTrak SupGP

Epoch: Sep 14, 2026, 22:21 UTC

1 62180C 24225T   26257.93173611 -.00005357  00000+0 -44897-3 0  2578
2 62180  70.0013  47.1240 0003141 274.1121  99.9697 14.98331626    18

Track STARLINK-32587 in real time with AllMySat

Download on the App Store